Voltar ao catálogo

COSMOS 340

AtivoMilitarLEO
NORAD 4387·PAYLOAD·🇷🇺 Russia

Lançado Apr 25, 1970 de Plesetsk Cosmodrome

Loading…

Próximas Passagens (próximas 24 horas)

TLE

AtualizadoSource: Space-Track

Época: Sep 14, 2026, 15:36 UTC

1 04387U 70036E   26257.65051060  .00000012  00000-0  16698-3 0  9999
2 04387  74.0295 152.1916 0039110 114.1490 258.9482 12.56337780585626

Acompanhe COSMOS 340 em tempo real com AllMySat

Download on the App Store